| time (UTC) | temp F | wind direction | speed MPH | gust MPH | rain 1hr in | rain 24hr in | rain mn in | humidity % | barometer mb |
| 20260905194525 | 92 | 319 | 6.0 | 10.0 | 0.00 | 0.00 | 0.00 | 60 | 1008.2 |
| 20260905193006 | 92 | 270 | 7.0 | 10.0 | 0.00 | 0.00 | 0.00 | 60 | 1008.4 |
| 20260905191552 | 91 | 228 | 0.0 | 8.0 | 0.00 | 0.00 | 0.00 | 60 | 1008.7 |
| 20260905190032 | 91 | 281 | 2.0 | 9.0 | 0.00 | 0.00 | 0.00 | 58 | 1009.0 |
| 20260905184506 | 90 | 291 | 4.0 | 9.0 | 0.00 | 0.00 | 0.00 | 61 | 1009.2 |
| 20260905183040 | 90 | 247 | 4.0 | 9.0 | 0.00 | 0.00 | 0.00 | 62 | 1009.2 |
| 20260905181532 | 89 | 271 | 6.0 | 10.0 | 0.00 | 0.00 | 0.00 | 60 | 1009.4 |
| 20260905180100 | 88 | 248 | 8.0 | 14.0 | 0.00 | 0.00 | 0.00 | 63 | 1009.5 |
| 20260905180001 | 88 | 265 | 8.0 | 14.0 | 0.00 | 0.00 | 0.00 | 61 | 1009.5 |
| 20260905174535 | 88 | 269 | 7.0 | 11.0 | 0.00 | 0.00 | 0.00 | 63 | 1009.6 |
| 20260905173019 | 87 | 262 | 3.0 | 8.0 | 0.00 | 0.00 | 0.00 | 64 | 1010.0 |
| 20260905171555 | 87 | 246 | 6.0 | 10.0 | 0.00 | 0.00 | 0.00 | 60 | 1010.0 |
| 20260905170045 | 87 | 218 | 9.0 | 14.0 | 0.00 | 0.00 | 0.00 | 62 | 1010.2 |
| 20260905164517 | 86 | 221 | 4.0 | 10.0 | 0.00 | 0.00 | 0.00 | 60 | 1010.4 |
| 20260905163057 | 85 | 204 | 4.0 | 8.0 | 0.00 | 0.00 | 0.00 | 63 | 1010.6 |
| 20260905161537 | 84 | 187 | 4.0 | 10.0 | 0.00 | 0.00 | 0.00 | 63 | 1010.8 |
| 20260905160054 | 84 | 197 | 3.0 | 8.0 | 0.00 | 0.00 | 0.00 | 64 | 1010.8 |
| 20260905154531 | 83 | 267 | 4.0 | 9.0 | 0.00 | 0.00 | 0.00 | 66 | 1010.6 |
| 20260905153012 | 82 | 242 | 4.0 | 10.0 | 0.00 | 0.00 | 0.00 | 66 | 1010.8 |
| 20260905151552 | 82 | 263 | 2.0 | 10.0 | 0.00 | 0.00 | 0.00 | 67 | 1010.6 |
| 20260905150026 | 82 | 229 | 5.0 | 13.0 | 0.00 | 0.00 | 0.00 | 65 | 1010.5 |
| 20260905144505 | 81 | 181 | 6.0 | 15.0 | 0.00 | 0.00 | 0.00 | 66 | 1010.8 |
| 20260905143049 | 80 | 161 | 7.0 | 14.0 | 0.00 | 0.00 | 0.00 | 69 | 1010.8 |
| 20260905141521 | 79 | 144 | 10.0 | 15.0 | 0.00 | 0.00 | 0.00 | 69 | 1011.0 |
| 20260905140055 | 78 | 138 | 4.0 | 15.0 | 0.00 | 0.00 | 0.00 | 72 | 1011.2 |
| 20260905140001 | 78 | 161 | 4.0 | 15.0 | 0.00 | 0.00 | 0.00 | 71 | 1011.2 |
| 20260905134535 | 77 | 154 | 6.0 | 13.0 | 0.00 | 0.00 | 0.00 | 73 | 1011.2 |
| 20260905133015 | 76 | 155 | 6.0 | 13.0 | 0.00 | 0.00 | 0.00 | 74 | 1011.3 |
| 20260905131555 | 75 | 108 | 7.0 | 12.0 | 0.00 | 0.00 | 0.00 | 76 | 1011.5 |
| 20260905130029 | 74 | 169 | 5.0 | 10.0 | 0.00 | 0.00 | 0.00 | 78 | 1011.1 |
| 20260905124509 | 73 | 162 | 4.0 | 10.0 | 0.00 | 0.00 | 0.00 | 80 | 1011.1 |
| 20260905123043 | 72 | 132 | 4.0 | 9.0 | 0.00 | 0.00 | 0.00 | 82 | 1011.2 |
| 20260905121523 | 71 | 114 | 3.0 | 11.0 | 0.00 | 0.00 | 0.00 | 83 | 1011.3 |
| 20260905120002 | 70 | 119 | 3.0 | 9.0 | 0.00 | 0.00 | 0.00 | 83 | 1011.2 |
| 20260905114544 | 70 | 110 | 7.0 | 13.0 | 0.00 | 0.00 | 0.00 | 83 | 1011.0 |
| 20260905113031 | 70 | 87 | 7.0 | 12.0 | 0.00 | 0.00 | 0.00 | 83 | 1010.9 |
| 20260905111645 | 71 | 99 | 9.0 | 15.0 | 0.00 | 0.00 | 0.00 | 83 | 1010.8 |
| 20260905111501 | 71 | 107 | 9.0 | 18.0 | 0.00 | 0.00 | 0.00 | 83 | 1010.8 |
| 20260905110037 | 71 | 107 | 9.0 | 20.0 | 0.00 | 0.00 | 0.00 | 83 | 1011.0 |
| 20260905104520 | 72 | 100 | 16.0 | 31.0 | 0.00 | 0.00 | 0.00 | 86 | 1011.0 |
| 20260905103047 | 72 | 103 | 14.0 | 19.0 | 0.00 | 0.00 | 0.00 | 93 | 1010.3 |
| 20260905101539 | 71 | 155 | 0.0 | 0.0 | 0.00 | 0.00 | 0.00 | 92 | 1009.7 |
| 20260905100057 | 71 | 155 | 0.0 | 0.0 | 0.00 | 0.00 | 0.00 | 92 | 1009.5 |
| 20260905094531 | 71 | 155 | 0.0 | 0.0 | 0.00 | 0.00 | 0.00 | 92 | 1009.4 |
| 20260905093012 | 71 | 155 | 0.0 | 0.0 | 0.00 | 0.00 | 0.00 | 92 | 1009.3 |
| 20260905091559 | 72 | 155 | 0.0 | 0.0 | 0.00 | 0.00 | 0.00 | 92 | 1009.3 |
| 20260905090029 | 72 | 155 | 0.0 | 0.0 | 0.00 | 0.00 | 0.00 | 92 | 1009.4 |
| 20260905084509 | 72 | 155 | 0.0 | 0.0 | 0.00 | 0.00 | 0.00 | 92 | 1009.3 |
| 20260905083046 | 72 | 155 | 0.0 | 0.0 | 0.00 | 0.00 | 0.00 | 92 | 1009.3 |
| 20260905081526 | 72 | 155 | 0.0 | 0.0 | 0.00 | 0.00 | 0.00 | 91 | 1009.1 |
| 20260905080004 | 72 | 155 | 0.0 | 0.0 | 0.00 | 0.00 | 0.00 | 91 | 1008.7 |
| 20260905074543 | 72 | 155 | 0.0 | 0.0 | 0.00 | 0.00 | 0.00 | 91 | 1008.6 |
| 20260905073026 | 72 | 155 | 0.0 | 0.0 | 0.00 | 0.00 | 0.00 | 91 | 1008.5 |
| 20260905071603 | 72 | 155 | 0.0 | 0.0 | 0.00 | 0.00 | 0.00 | 91 | 1008.7 |
| 20260905071508 | 72 | 155 | 0.0 | 0.0 | 0.00 | 0.00 | 0.00 | 91 | 1008.6 |
| 20260905070041 | 72 | 155 | 0.0 | 0.0 | 0.00 | 0.00 | 0.00 | 90 | 1008.7 |
| 20260905064528 | 72 | 155 | 0.0 | 0.0 | 0.00 | 0.00 | 0.00 | 90 | 1008.9 |
| 20260905063103 | 72 | 155 | 0.0 | 0.0 | 0.00 | 0.00 | 0.00 | 90 | 1009.2 |
| 20260905061552 | 72 | 155 | 0.0 | 0.0 | 0.00 | 0.00 | 0.00 | 90 | 1009.4 |
| 20260905060029 | 73 | 155 | 0.0 | 0.0 | 0.00 | 0.00 | 0.00 | 89 | 1009.6 |
| 20260905054555 | 73 | 155 | 0.0 | 0.0 | 0.00 | 0.00 | 0.00 | 89 | 1009.7 |
| 20260905053036 | 73 | 155 | 0.0 | 0.0 | 0.00 | 0.00 | 0.00 | 89 | 1009.9 |
| 20260905051515 | 73 | 155 | 0.0 | 0.0 | 0.00 | 0.00 | 0.00 | 89 | 1009.9 |
| 20260905050053 | 73 | 155 | 0.0 | 0.0 | 0.00 | 0.00 | 0.00 | 88 | 1010.0 |
| 20260905044531 | 73 | 155 | 0.0 | 0.0 | 0.00 | 0.00 | 0.00 | 88 | 1010.0 |
| 20260905043011 | 74 | 155 | 0.0 | 0.0 | 0.00 | 0.00 | 0.00 | 88 | 1010.0 |
| 20260905041552 | 74 | 155 | 0.0 | 0.0 | 0.00 | 0.00 | 0.00 | 88 | 1010.1 |
| 20260905040019 | 75 | 155 | 0.0 | 0.0 | 0.00 | 0.00 | 0.00 | 87 | 1010.1 |
| 20260905034538 | 75 | 155 | 0.0 | 0.0 | 0.00 | 0.00 | 0.00 | 86 | 1010.0 |
| 20260905033018 | 75 | 155 | 0.0 | 0.0 | 0.00 | 0.00 | 0.00 | 86 | 1010.2 |
| 20260905031559 | 76 | 155 | 0.0 | 0.0 | 0.00 | 0.00 | 0.00 | 85 | 1010.2 |
| 20260905030038 | 76 | 155 | 0.0 | 0.0 | 0.00 | 0.00 | 0.00 | 85 | 1010.1 |
| 20260905024529 | 77 | 155 | 0.0 | 0.0 | 0.00 | 0.00 | 0.00 | 85 | 1010.0 |
| 20260905023053 | 77 | 155 | 0.0 | 0.0 | 0.00 | 0.00 | 0.00 | 83 | 1010.0 |
| 20260905021539 | 77 | 155 | 0.0 | 0.0 | 0.00 | 0.00 | 0.00 | 82 | 1009.9 |
| 20260905020025 | 78 | 155 | 0.0 | 1.0 | 0.00 | 0.00 | 0.00 | 83 | 1009.9 |
| 20260905014558 | 79 | 155 | 0.0 | 5.0 | 0.00 | 0.00 | 0.00 | 81 | 1009.9 |
| 20260905013041 | 80 | 155 | 0.0 | 0.0 | 0.00 | 0.00 | 0.00 | 79 | 1009.8 |
| 20260905011518 | 80 | 155 | 0.0 | 5.0 | 0.00 | 0.00 | 0.00 | 79 | 1009.6 |
| 20260905010058 | 81 | 163 | 0.0 | 0.0 | 0.00 | 0.00 | 0.00 | 77 | 1009.6 |
| 20260905004532 | 82 | 153 | 0.0 | 0.0 | 0.00 | 0.00 | 0.00 | 75 | 1009.4 |
| 20260905003014 | 83 | 146 | 0.0 | 0.0 | 0.00 | 0.00 | 0.00 | 74 | 1009.4 |
| 20260905001552 | 84 | 124 | 1.0 | 10.0 | 0.00 | 0.00 | 0.00 | 73 | 1009.4 |
| 20260905000034 | 85 | 114 | 7.0 | 10.0 | 0.00 | 0.00 | 0.00 | 73 | 1009.5 |
| 20260904234514 | 86 | 102 | 8.0 | 11.0 | 0.00 | 0.00 | 0.00 | 73 | 1009.4 |
| 20260904233053 | 88 | 107 | 4.0 | 7.0 | 0.00 | 0.00 | 0.00 | 74 | 1009.2 |
| 20260904231529 | 89 | 110 | 0.0 | 0.0 | 0.00 | 0.00 | 0.00 | 72 | 1009.1 |
| 20260904230008 | 89 | 110 | 3.0 | 9.0 | 0.00 | 0.00 | 0.00 | 70 | 1009.1 |
| 20260904224548 | 89 | 102 | 4.0 | 10.0 | 0.00 | 0.00 | 0.00 | 69 | 1009.0 |
| 20260904223027 | 90 | 102 | 7.0 | 13.0 | 0.00 | 0.00 | 0.00 | 67 | 1009.1 |
| 20260904221509 | 92 | 132 | 3.0 | 9.0 | 0.00 | 0.00 | 0.00 | 65 | 1009.0 |
| 20260904220032 | 94 | 292 | 0.0 | 5.0 | 0.00 | 0.00 | 0.00 | 61 | 1008.9 |
| 20260904214512 | 95 | 286 | 7.0 | 9.0 | 0.00 | 0.00 | 0.00 | 59 | 1008.6 |
| 20260904213048 | 95 | 267 | 0.0 | 0.0 | 0.00 | 0.00 | 0.00 | 57 | 1008.8 |
| 20260904211533 | 94 | 258 | 0.0 | 6.0 | 0.00 | 0.00 | 0.00 | 58 | 1009.0 |
| 20260904210023 | 94 | 279 | 3.0 | 8.0 | 0.00 | 0.00 | 0.00 | 59 | 1009.3 |
| 20260904204543 | 96 | 287 | 8.0 | 11.0 | 0.00 | 0.00 | 0.00 | 56 | 1009.4 |
| 20260904203024 | 96 | 281 | 7.0 | 12.0 | 0.00 | 0.00 | 0.00 | 56 | 1009.5 |
| 20260904201503 | 95 | 315 | 0.0 | 0.0 | 0.00 | 0.00 | 0.00 | 59 | 1009.8 |
| 20260904200042 | 94 | 250 | 0.0 | 7.0 | 0.00 | 0.00 | 0.00 | 61 | 1009.8 |